OBJECT DP, 66775

Orbit data source: Space-Track

You're viewing an uncataloged RSO

Recently launched and/or uncataloged RSOs may have evolving metadata. Metadata may include the following, but is not limited to: Owner, Manufacturer, Bus, Motor, and Mission.

OBJECT DP, 66775 is a satellite in SSO that was launched on Fri, 28 Nov 2025 UTC via an FALCON 9 launch vehicle from the Air Force Western Test Range (AFWTR). Unknown objects in Earth's orbit typically refer to objects detected orbiting the Earth but have not yet been identified or cataloged. These objects could be anything from previously untracked satellites, spent rocket stages, debris from satellite collisions, or even natural meteoroids temporarily captured by Earth's gravity.

Loading next visibility...
Identifier
66775, 2025-276DP
Orbit
SSO
Country
Flag of TBDTBD
Related business
Manufacturer
Rashid Space Ctr
Mission
Operational Civil Technology
Bus & Motor
CUBESAT 12U, Unknown motor
Mass
~20 kg wet, ~20 kg dry
Launch date (UTC)
2025-11-28 (9 months ago)
Launch vehicle
FALCON 9
Launch site
Air Force Western Test Range (AFWTR)
Object type
Unknown
Shape & HBR
Box, 0.2 m
Radar Cross Section
0.080 m², Medium (>0.1 m² and < 1m²)

Expand to show TLE details & history
Last TLE update: 17 hours ago

TLE from 17 hours ago
0 OBJECT DP
1 66775U 25276DP  26238.19538705  .00005324  00000-0  23587-3 0  9994
2 66775  97.4088 310.9057 0000274 138.5715 221.5542 15.22049194 41099
Epoch: 2026-08-26T04:41Z
TLE epoch observation values (Epoch: 2026-08-26T04:41:21.441Z)
Latitude
-0°
Longitude
-93.88551°
Altitude
502.895 km
Speed
7.613 km/s
True Right ascension
20h 43m 37s
True Declination
0° 00' 00"
Sunlit
Object was in full shadow at epoch
Visualization orbit readout
Latitude
Unknown
Longitude
Unknown
Altitude
Unknown
Speed
Unknown
Apparent Right ascension
Unknown
Apparent Declination
Unknown
Sunlit
N/A
Visualization observer readout
Local Sidereal Time
13:30:23
Azimuth
Unknown
Elevation
Unknown
Doppler factor
Unknown
Orbital elements
Apogee altitude
496.812 km
Perigee altitude
496.435 km
Semi-major axis
6,874.761 km
Eccentricity
0.00003
Inclination
97.4088°
RAAN
310.9057°
Arg. of periapsis
138.5715°
True anomaly
221.55212°
Mean anomaly
221.5542°
Eccentric anomaly
221.55316°
Mean motion
3.80765 °/min
Orbital period
94.55 mins
BSTAR
0.00023587
Loading maneuver chart data...
Computing Atmospheric mass density...
Loading historical data...
Loading historical data...
Loading historical data...
Loading historical data...
Loading historical data...
Loading historical data...
Loading historical data...

Documentation

Showing up to 5 results
|